User: anonymous   Login
Location: Red Deer
(52.2681°N, 113.8112°W)
Time: 04:33:09
(UTC-06:00)
Language:

SEEDS - Orbit

View from above orbital plane
View from above orbital plane
View from above satellite
View from above satellite

Ground track
Ground track

The orbit data is extracted from the following two-line orbital elements,

1 32791U 08021J   22141.69459274  .00005943  00000-0  58304-3 0  9993
2 32791  97.6103 118.9202 0010802 281.3105  78.6901 14.92532603763208
Epoch (UTC): 21 May 2022 16:40:12
Eccentricity: 0.0010802
inclination: 97.6103°
perigee height: 582 km
apogee height: 597 km
right ascension of ascending node: 118.9202°
argument of perigee: 281.3105°
revolutions per day: 14.92532603
mean anomaly at epoch: 78.6901°
orbit number at epoch: 76320

The dashed part of the orbit path shows where the satellite is in the earth's shadow,  

DLR